Weather History for KAWG - January, 2014

Change the Weather History Date:

Wednesday, January 1, 2014

  Actual Average (KIOW) Record (KIOW)
Temperature  
Mean Temperature 11 °F 22 °F  
Max Temperature 14 °F 30 °F 51 °F (2004)
Min Temperature 8 °F 14 °F -12 °F (1968)
Degree Days  
Heating Degree Days 54 43  
Month to date heating degree days 43  
Since 1 July heating degree days 2582  
Cooling Degree Days 0 0  
Month to date cooling degree days 0  
Year to date cooling degree days 0  
Moisture  
Dew Point 8 °F    
Average Humidity 84    
Maximum Humidity 92    
Minimum Humidity 73    
Precipitation  
Precipitation 0.00 in 0.02 in 0.45 in (1985)
Month to date precipitation 0.02  
Year to date precipitation 0.02  
Sea Level Pressure  
Sea Level Pressure 30.22 in    
Wind  
Wind Speed 15 mph (NE)    
Max Wind Speed 22 mph    
Max Gust Speed 23 mph    
Visibility 6 miles    
Events Rain , Snow    
T = Trace of Precipitation, MM = Missing Value Source: NWS Daily Summary

Daily Weather History Graph

Daily Weather History Graph

Search for Another Location

Airport or City:

Trip Planner

Search our weather history database for the weather conditions in past years. The results will help you decide how hot, cold, wet, or windy it might be!

Date:

Astronomy

Jan. 01, 2014 Rise Set
Actual Time 7:32 AM CST 4:48 PM CST
Civil Twilight 7:01 AM CST 5:19 PM CST
Nautical Twilight 6:26 AM CST 5:54 PM CST
Astronomical Twilight 5:53 AM CST 6:27 PM CST
Moon 7:22 AM CST (1/1) 5:34 PM CST (1/1)
Length of Visible Light 10h 18m
Length of Day
9h 15m
New Moon, 0% of the Moon is Illuminated
Jan 1
New Moon
Jan 7
First Quarter
Jan 15
Full
Jan 23
Last Quarter
Jan 30
New

Hourly Weather History & Observations

Time (CST) Temp. Windchill Dew Point Humidity Pressure Visibility Wind Dir Wind Speed Gust Speed Precip Events Conditions
12:15 AM 12.2 °F -3.7 °F 8.6 °F 85% 30.21 in 10.0 mi ENE 15.0 mph - N/A   Overcast
12:35 AM 12.2 °F -3.7 °F 8.6 °F 85% 30.21 in 10.0 mi NE 15.0 mph - N/A   Overcast
12:55 AM 12.2 °F -1.8 °F 8.6 °F 85% 30.21 in 10.0 mi NE 11.5 mph - N/A   Mostly Cloudy
1:15 AM 10.4 °F -4.8 °F 6.8 °F 85% 30.20 in 10.0 mi NE 12.7 mph - N/A   Overcast
1:35 AM 10.4 °F -4.8 °F 6.8 °F 85% 30.20 in 10.0 mi ENE 12.7 mph - N/A   Overcast
1:55 AM 10.4 °F -4.8 °F 6.8 °F 85% 30.20 in 10.0 mi NE 12.7 mph - N/A   Overcast
2:15 AM 10.4 °F -5.4 °F 6.8 °F 85% 30.20 in 10.0 mi NE 13.8 mph - N/A   Mostly Cloudy
2:35 AM 10.4 °F -5.4 °F 6.8 °F 85% 30.20 in 10.0 mi NE 13.8 mph - N/A   Mostly Cloudy
2:55 AM 10.4 °F -5.4 °F 6.8 °F 85% 30.20 in 10.0 mi NE 13.8 mph - N/A   Scattered Clouds
3:15 AM 10.4 °F -5.4 °F 6.8 °F 85% 30.21 in 10.0 mi ENE 13.8 mph - N/A   Scattered Clouds
3:35 AM 10.4 °F -6.0 °F 6.8 °F 85% 30.20 in 10.0 mi NE 15.0 mph - N/A   Mostly Cloudy
3:55 AM 10.4 °F -6.0 °F 6.8 °F 85% 30.19 in 10.0 mi NE 15.0 mph - N/A   Overcast
4:15 AM 10.4 °F -7.7 °F 6.8 °F 85% 30.18 in 10.0 mi NE 18.4 mph - N/A   Overcast
4:35 AM 10.4 °F -7.7 °F 6.8 °F 85% 30.19 in 10.0 mi NE 18.4 mph - N/A   Overcast
4:55 AM 10.4 °F -6.0 °F 6.8 °F 85% 30.18 in 10.0 mi NE 15.0 mph - N/A   Overcast
5:15 AM 10.4 °F -6.0 °F 6.8 °F 85% 30.19 in 10.0 mi ENE 15.0 mph - N/A   Overcast
5:35 AM 10.4 °F -6.6 °F 6.8 °F 85% 30.19 in 10.0 mi NE 16.1 mph - N/A   Overcast
5:55 AM 10.4 °F -6.0 °F 6.8 °F 85% 30.19 in 10.0 mi NE 15.0 mph - N/A   Overcast
6:15 AM 10.4 °F -6.0 °F 6.8 °F 85% 30.20 in 10.0 mi NE 15.0 mph - N/A   Overcast
6:35 AM 10.4 °F -6.6 °F 6.8 °F 85% 30.21 in 9.0 mi NE 16.1 mph - N/A   Overcast
6:55 AM 10.4 °F -5.4 °F 6.8 °F 85% 30.21 in 8.0 mi NE 13.8 mph 20.7 mph N/A   Overcast
7:15 AM 10.4 °F -5.4 °F 6.8 °F 85% 30.22 in 10.0 mi NE 13.8 mph 20.7 mph N/A   Overcast
7:35 AM 10.4 °F -6.6 °F 6.8 °F 85% 30.23 in 9.0 mi NE 16.1 mph - N/A   Overcast
7:55 AM 10.4 °F -7.2 °F 6.8 °F 85% 30.23 in 7.0 mi NE 17.3 mph - N/A   Overcast
8:15 AM 10.4 °F -7.2 °F 6.8 °F 85% 30.23 in 6.0 mi NE 17.3 mph - N/A   Haze
8:35 AM 10.4 °F -7.2 °F 6.8 °F 85% 30.24 in 4.0 mi NE 17.3 mph - N/A Snow Light Snow
8:55 AM 10.4 °F -7.2 °F 6.8 °F 85% 30.23 in 2.5 mi NE 17.3 mph - N/A Snow Light Snow
9:15 AM 10.4 °F -4.8 °F 6.8 °F 85% 30.24 in 0.5 mi NE 12.7 mph - N/A Snow Light Snow
9:35 AM 10.4 °F -9.1 °F 5.0 °F 79% 30.23 in 1.0 mi NE 21.9 mph - N/A Snow Light Snow
9:55 AM 8.6 °F -11.0 °F 5.0 °F 85% 30.24 in 1.2 mi NE 20.7 mph - N/A Snow Light Snow
10:15 AM 10.4 °F -6.6 °F 5.0 °F 79% 30.25 in 2.5 mi NE 16.1 mph - N/A Snow Light Snow
10:35 AM 10.4 °F -5.4 °F 6.8 °F 85% 30.25 in 0.8 mi NE 13.8 mph - N/A Snow Light Snow
10:55 AM 10.4 °F -5.4 °F 6.8 °F 85% 30.25 in 0.8 mi NE 13.8 mph - N/A Snow Light Snow
11:15 AM 10.4 °F -4.1 °F 6.8 °F 85% 30.25 in 0.5 mi NNE 11.5 mph - N/A Snow Light Snow
11:35 AM 10.4 °F -7.2 °F 6.8 °F 85% 30.24 in 2.0 mi NNE 17.3 mph - N/A Snow Light Snow
11:55 AM 10.4 °F -6.6 °F 6.8 °F 85% 30.23 in 1.5 mi NNE 16.1 mph - N/A Snow Light Snow
12:15 PM 10.4 °F -7.2 °F 6.8 °F 85% 30.22 in 0.8 mi NNE 17.3 mph - N/A Snow Light Snow
12:35 PM 10.4 °F -7.2 °F 6.8 °F 85% 30.21 in 0.5 mi NNE 17.3 mph - N/A Snow Light Snow
12:55 PM 12.2 °F -3.7 °F 8.6 °F 85% 30.20 in 0.5 mi NE 15.0 mph - N/A Snow Light Snow
1:15 PM 12.2 °F -3.7 °F 8.6 °F 85% 30.20 in 0.5 mi NE 15.0 mph 21.9 mph N/A Snow Light Snow
1:35 PM 12.2 °F -3.1 °F 8.6 °F 85% 30.20 in 0.8 mi NE 13.8 mph - N/A Snow Light Snow
1:55 PM 12.2 °F -3.7 °F 8.6 °F 85% 30.20 in 0.8 mi NE 15.0 mph - N/A Snow Light Snow
2:15 PM 12.2 °F -3.1 °F 10.4 °F 92% 30.20 in 0.5 mi NE 13.8 mph - N/A Snow Light Snow
2:35 PM 14.0 °F 0.5 °F 10.4 °F 86% 30.19 in 0.8 mi NNE 11.5 mph 18.4 mph N/A Snow Light Snow
2:55 PM 14.0 °F -1.4 °F 10.4 °F 86% 30.19 in 0.8 mi NNE 15.0 mph - N/A Snow Light Snow
3:15 PM 14.0 °F -2.0 °F 10.4 °F 86% 30.20 in 0.8 mi NNE 16.1 mph - N/A Snow Light Snow
3:35 PM 14.0 °F -1.4 °F 10.4 °F 86% 30.19 in 0.8 mi NE 15.0 mph - N/A Snow Light Snow
3:55 PM 14.0 °F -0.8 °F 10.4 °F 86% 30.20 in 0.5 mi NNE 13.8 mph - N/A Snow Light Snow
4:15 PM 14.0 °F -0.8 °F 10.4 °F 86% 30.20 in 0.8 mi NNE 13.8 mph - N/A Snow Light Snow
4:35 PM 14.0 °F -0.8 °F 10.4 °F 86% 30.21 in 0.8 mi NNE 13.8 mph 20.7 mph N/A Snow Light Snow
4:55 PM 14.0 °F -0.8 °F 10.4 °F 86% 30.21 in 0.8 mi NNE 13.8 mph - N/A Snow Light Snow
5:15 PM 14.0 °F -1.4 °F 10.4 °F 86% 30.21 in 1.0 mi NNE 15.0 mph - N/A Snow Light Snow
5:35 PM 14.0 °F -1.4 °F 10.4 °F 86% 30.22 in 1.5 mi NNE 15.0 mph - N/A Snow Light Snow
5:55 PM 14.0 °F -1.4 °F 10.4 °F 86% 30.23 in 3.0 mi NNE 15.0 mph - N/A Snow Light Snow
6:15 PM 14.0 °F -2.0 °F 10.4 °F 86% 30.24 in 3.0 mi NNE 16.1 mph - N/A Snow Light Snow
6:35 PM 14.0 °F -2.0 °F 10.4 °F 86% 30.24 in 9.0 mi NNE 16.1 mph 21.9 mph N/A Rain Light Freezing Rain
6:55 PM 14.0 °F -1.4 °F 10.4 °F 86% 30.25 in 10.0 mi NNE 15.0 mph 23.0 mph N/A   Overcast
7:15 PM 14.0 °F -2.0 °F 8.6 °F 79% 30.25 in 10.0 mi NNE 16.1 mph - N/A   Overcast
7:35 PM 14.0 °F -2.0 °F 8.6 °F 79% 30.25 in 10.0 mi North 16.1 mph - N/A   Overcast
7:55 PM 14.0 °F -3.0 °F 8.6 °F 79% 30.26 in 10.0 mi NNE 18.4 mph - N/A   Overcast
8:15 PM 12.2 °F -4.3 °F 6.8 °F 79% 30.27 in 10.0 mi NNE 16.1 mph - N/A   Overcast
8:35 PM 12.2 °F -4.8 °F 6.8 °F 79% 30.27 in 10.0 mi NNE 17.3 mph - N/A   Overcast
8:55 PM 12.2 °F -3.7 °F 6.8 °F 79% 30.27 in 10.0 mi North 15.0 mph - N/A   Overcast
9:15 PM 12.2 °F -3.1 °F 6.8 °F 79% 30.27 in 10.0 mi North 13.8 mph - N/A   Overcast
9:35 PM 12.2 °F -2.5 °F 5.0 °F 73% 30.27 in 10.0 mi NNE 12.7 mph - N/A   Overcast
9:55 PM 12.2 °F -2.5 °F 5.0 °F 73% 30.27 in 10.0 mi North 12.7 mph - N/A   Overcast
10:15 PM 10.4 °F -4.8 °F 5.0 °F 79% 30.27 in 10.0 mi North 12.7 mph - N/A   Overcast
10:35 PM 10.4 °F -3.3 °F 5.0 °F 79% 30.27 in 10.0 mi North 10.4 mph - N/A   Overcast
10:55 PM 12.2 °F -1.8 °F 5.0 °F 73% 30.27 in 10.0 mi North 11.5 mph - N/A   Overcast
11:15 PM 12.2 °F -2.5 °F 5.0 °F 73% 30.27 in 10.0 mi North 12.7 mph - N/A   Overcast
11:35 PM 12.2 °F -3.1 °F 6.8 °F 79% 30.27 in 10.0 mi North 13.8 mph - N/A   Overcast
11:55 PM 12.2 °F -1.8 °F 6.8 °F 79% 30.27 in 10.0 mi North 11.5 mph - N/A   Overcast